Voltar ao catálogo

NAXING 3B

AtivoCiênciaSSO
NORAD 60015·PAYLOAD·🇨🇳 China
Este nome de satélite ainda não foi confirmado por fontes oficiais.

Lançado Jun 6, 2024 de Jiuquan Satellite Launch Center

Loading…

Próximas Passagens (próximas 24 horas)

TLE

AtualizadoSource: Space-Track

Época: Sep 14, 2026, 14:29 UTC

1 60015U 24110D   26257.60403125  .00005666  00000-0  22867-3 0  9994
2 60015  97.5756 355.8374 0008303 301.3925  58.6499 15.25175710125884

Acompanhe NAXING 3B em tempo real com AllMySat

Download on the App Store